SCP
-0 -0 -0 -0 -0 -0 -0 -0 -0 -0 -0 -0 -0 -0 -0 -0 -0 -0 0 0 0 -0 -0 -0 -0 -0 -0 -0 -0 -0 -0 -0 -0 -0 -0 -0 -0 -0 -0 -0 -0 -0 -0
-0 -0 -0 -0 -0 -0 -0 -0 -0 -0 -0 -0 -0 -0 -0 -0 -0 0 0 0 -0 -0 -0 -0 -0 -0 -0 -0 -0 -0 -0 -0 -0 -0 -0 -0 -0 -0 -0 -0 -0 -0 -0
-0 -0 -0 -0 -0 -0 -0 -0 -0 -0 -0 -0 -0 -0 -0 -0 0 0 0 -0 -0 -0 -0 -0 -0 -0 -0 -0 -0 -0 -0 -0 -0 -0 -0 -0 -0 -0 -0 -0 -0 -0 -0
-0 -0 -0 -0 -0 -0 -0 -0 -0 -0 -0 -0 -0 -0 -0 -0 0 0 0 0 -0 -0 -0 -0 -0 -0 -0 -0 -0 -0 -0 -0 -0 -0 -0 -0 -0 -0 -0 -0 -0 -0 -0
-0 -0 -0 -0 -0 -0 -0 -0 -0 -0 -0 -0 -0 -0 -0 -0 -0 0 0 0 0 0 0 -0 -0 -0 -0 -0 -0 -0 -0 -0 -0 -0 -0 -0 -0 -0 -0 -0 -0 -0 -0
-0 -0 -0 -0 -0 -0 -0 -0 -0 -0 -0 -0 -0 -0 -0 -0 -0 -0 -0 0 0 0 0 0 -0 -0 -0 -0 -0 -0 -0 -0 -0 -0 -0 -0 -0 -0 -0 -0 -0 -0 -0
-0 -0 -0 -0 -0 -0 -0 -0 -0 -0 -0 -0 -0 -0 -0 -0 -0 -0 -0 -0 -0 -0 -0 -0 -0 -0 -0 -0 -0 -0 -0 -0 -0 -0 -0 -0 -0 -0 -0 -0 -0 -0 -0
0 0 0 0 -0 -0 -0 -0 -0 -0 -0 -0 -0 -0 -0 -0 -0 -0 -0 -0 -0 -0 -0 -0 -0 -0 -0 -0 -0 -0 -0 -0 -0 -0 -0 -0 -0 -0 -0 -0 -0 -0 -0
0 0 0 0 -0 -0 -0 -0 -0 -0 -0 -0 -0 -0 -0 -0 -0 -0 -0 -0 -0 -0 -0 -0 -0 -0 -0 -0 -0 0 0 0 0 -0 -0 -0 -0 -0 -0 -0 -0 -0 -0
-0 -0 -0 -0 -0 -0 -0 -0 -0 -0 -0 -0 -0 -0 -0 -0 -0 -0 -0 -0 -0 -0 -0 -0 -0 -0 -0 -0 -0 0 0 0 0 0 0 -0 -0 -0 -0 -0 -0 -0 -0
-0 -0 -0 -0 -0 -0 -0 -0 -0 -0 -0 -0 -0 -0 -0 -1 -1 -1 -1 -1 -0 -0 -0 -0 -0 -0 -0 -0 -0 0 0 0 0 0 0 0 0 0 0 -0 -0 -0 0
-0 -0 -0 -0 -0 -0 -0 -0 -0 -1 -1 -1 -1 -1 -1 -1 -1 -1 -1 -1 -1 -1 -0 -0 -0 -0 -0 0 0 0 0 0 0 0 0 0 0 0 0 0 0 0 0
-0 -0 -0 -0 -1 -1 -1 -1 -1 -1 -1 -1 -1 -1 -1 -1 -1 -1 -1 -1 -1 -1 -1 -0 -0 -0 -0 0 0 0 0 0 0 0 0 0 0 0 0 0 0 0 0
-0 -0 -0 -0 -1 -1 -1 -1 -1 -1 -1 -1 -1 -1 -1 -1 -1 -1 -1 -1 -1 -1 -1 -1 -0 -0 -0 0 0 0 0 0 0 0 0 0 0 0 0 0 0 0 0
-0 -0 -0 -0 -1 -1 -1 -1 -1 -1 -1 -1 -1 -1 -1 -1 -1 -1 -1 -1 -1 -1 -1 -1 -0 -0 -0 -0 0 0 0 0 0 0 0 0 0 0 0 0 0 0 0
-0 -0 -0 -0 -1 -1 -1 -1 -1 -1 -1 -1 -1 -1 -1 -1 -1 -2 -1 -1 -1 -1 -1 -1 -0 -0 -0 -0 0 0 0 0 0 0 0 0 0 0 0 0 0 0 0
-1 -1 -1 -1 -1 -1 -1 -1 -1 -1 -1 -2 -2 -2 -2 -2 -2 -2 -1 -1 -1 -1 -1 -1 -0 -0 -0 -0 0 0 0 0 0 0 0 -0 -0 0 0 0 0 0 0
-1 -1 -1 -1 -1 -1 -1 -1 -1 -2 -2 -2 -2 -2 -2 -2 -2 -2 -1 -1 -1 -1 -1 -0 -0 -0 -0 -0 0 0 0 0 0 0 0 0 -0 -0 0 0 0 0 0
-1 -1 -1 -1 -1 -1 -1 -1 -2 -2 -2 -2 -2 -2 -3 -3 -2 -2 -2 -1 -1 -1 -0 -0 -0 -0 -0 0 0 0 0 0 0 0 0 0 0 0 0 0 0 0 0
-1 -1 -1 -1 -1 -2 -2 -2 -2 -2 -2 -2 -2 -3 -3 -3 -3 -2 -2 -1 -1 -1 -1 -0 -0 -0 -0 0 0 0 0 0 0 0 0 0 0 0 0 0 0 0 0
-1 -1 -1 -1 -2 -2 -2 -2 -2 -2 -2 -2 -3 -3 -3 -3 -2 -2 -2 -1 -1 -1 -1 -0 -0 -0 -0 0 0 0 0 0 0 0 0 0 0 0 0 0 0 0 0
-0 -1 -1 -1 -1 -1 -1 -1 -1 -2 -2 -3 -3 -3 -3 -2 -2 -2 -1 -1 -1 -1 -1 -1 -1 -0 -0 -0 0 0 0 0 0 0 0 0 0 0 0 0 0 0 0
-0 -0 -1 -1 -1 -1 -1 -0 -1 -1 -2 -3 -2 -2 -2 -2 -2 -1 -1 -1 -1 -1 -1 -1 -1 -1 -1 -0 -0 0 0 0 0 0 0 0 0 0 0 0 0 0 0
-0 -0 -0 -1 -1 -0 -0 -0 -0 -1 -2 -2 -2 -1 -1 -1 -1 -1 -1 -1 -1 -1 -1 -1 -1 -1 -1 -0 -0 -0 0 0 0 0 0 0 0 0 0 0 0 0 0
0 -0 -0 -0 -0 -0 0 0 -0 -1 -1 -1 -1 -1 -1 -0 -0 -0 -0 -1 -1 -1 -1 -1 -1 -1 -0 -0 -0 -0 0 0 0 0 0 0 0 0 0 0 0 0 0
0 0 -0 -0 -0 0 0 0 -0 -0 -0 -1 -1 -0 -0 -0 -0 -0 -0 -0 -1 -1 -1 -1 -0 -0 -0 -0 -0 -0 0 0 0 0 0 0 0 0 0 0 0 0 0
Wind_Speed
2 2 1 1 1 2 2 1 1 2 1 2 2 3 2 2 2 2 5 10 9 8 8 8 8 8 8 8 8 7 7 7 7 7 7 7 7 8 7 7 7 7 7
1 1 2 1 1 1 1 1 1 2 2 1 2 2 2 2 2 2 3 8 10 9 9 9 9 9 9 9 9 8 8 8 8 7 7 7 8 8 8 8 8 8 7
1 1 1 2 1 1 2 2 1 2 2 2 2 2 2 2 2 3 3 3 6 11 10 9 9 9 9 10 10 9 9 9 9 8 8 8 8 8 8 8 8 8 8
1 2 1 1 1 1 2 2 2 2 1 1 2 2 2 2 3 3 3 3 3 4 9 10 8 8 9 9 9 9 9 9 9 8 9 9 9 9 8 8 8 7 7
3 3 1 0 2 2 2 2 1 1 2 2 2 2 2 2 2 3 2 3 2 3 3 7 8 7 7 7 7 6 7 7 7 7 8 9 8 8 7 7 7 7 7
3 3 2 2 3 2 2 2 1 1 2 2 2 0 1 1 1 1 2 1 1 2 2 2 4 5 6 5 6 6 6 6 7 7 7 7 7 7 7 6 6 6 7
2 3 2 2 3 2 2 2 2 2 2 1 2 2 2 2 2 1 1 1 1 0 0 0 1 1 3 5 4 4 5 5 5 6 6 6 6 6 6 6 6 7 6
3 3 2 2 2 2 2 3 2 2 2 2 2 2 2 3 3 1 2 2 2 1 1 1 1 1 1 1 3 3 3 2 2 3 3 3 4 5 5 5 5 5 6
2 2 2 2 2 3 2 2 3 4 3 3 2 3 2 1 1 2 2 2 2 2 2 2 2 2 2 2 2 4 3 2 1 2 2 2 2 2 2 4 5 4 4
2 2 2 2 3 2 2 3 2 3 4 3 2 3 3 2 2 1 2 3 2 2 2 2 2 3 3 3 4 6 6 5 4 4 3 3 2 2 1 1 2 2 2
1 1 1 1 2 2 2 3 2 3 3 3 3 2 2 2 3 2 2 2 2 2 2 2 2 2 3 3 3 6 7 6 6 6 6 5 5 6 6 5 4 3 3
1 0 1 1 1 2 1 2 2 2 2 2 3 3 3 2 2 2 2 2 2 2 3 3 3 3 3 4 6 9 9 8 8 8 8 8 8 8 8 7 6 6 5
0 1 1 1 1 1 1 1 1 1 1 2 3 2 2 2 2 2 2 2 2 2 2 2 3 3 4 4 5 9 10 10 10 9 9 9 9 9 9 9 9 8 7
1 1 1 1 1 1 1 1 1 1 1 1 2 2 2 2 2 2 2 3 3 2 2 2 2 3 3 4 6 7 8 11 10 10 10 10 10 10 10 10 10 9 9
1 1 1 1 1 2 2 1 1 1 1 1 1 1 1 1 1 2 2 3 3 3 2 2 2 3 3 4 5 6 7 11 11 11 10 10 10 10 10 10 10 10 10
1 1 1 1 1 1 1 1 1 2 1 1 1 1 1 0 0 1 2 3 2 2 2 2 2 3 4 5 7 7 8 12 13 11 11 10 10 11 10 11 11 11 11
1 1 1 1 2 2 2 2 2 2 2 2 1 1 1 1 0 1 1 2 2 3 4 4 3 4 5 6 6 6 6 7 8 11 11 10 10 10 11 10 10 10 10
2 2 1 1 2 2 2 2 2 2 2 2 2 2 2 1 1 1 1 2 3 3 5 6 5 4 5 6 6 5 5 6 7 11 11 10 10 10 10 10 10 10 9
2 2 2 2 2 2 2 2 2 2 3 3 3 3 3 2 2 3 2 3 3 4 5 6 5 4 4 5 6 5 6 4 6 9 10 10 10 10 10 9 9 9 8
3 3 2 2 2 2 2 2 3 3 4 4 4 4 3 3 3 3 3 4 4 5 6 6 6 5 5 5 4 5 5 4 4 5 6 7 9 9 9 8 8 7 7
4 4 3 3 2 2 3 3 3 3 3 4 4 4 5 6 6 4 3 4 4 4 5 6 6 5 5 5 4 4 4 4 4 3 3 4 5 4 6 6 6 6 5
4 4 4 4 3 3 6 4 2 3 3 4 4 4 5 5 7 7 7 7 4 4 4 5 5 6 6 5 4 3 4 4 3 2 2 3 2 3 3 4 6 5 4
5 4 4 4 4 5 4 3 3 2 3 3 4 3 3 5 4 6 6 6 6 6 3 2 5 5 6 5 5 4 3 2 2 3 2 3 3 3 3 5 7 4 3
5 5 5 4 4 5 5 3 1 2 4 4 4 3 4 4 4 3 4 5 5 4 2 2 3 3 3 3 3 4 5 5 4 3 2 2 3 2 3 4 8 6 4
5 5 5 5 5 6 5 3 2 3 4 4 4 4 3 4 4 1 3 5 5 5 6 7 6 5 5 3 1 3 4 4 4 4 3 2 2 2 3 4 7 10 7
6 6 5 5 5 5 5 3 3 3 4 4 4 4 4 4 3 1 2 4 4 4 5 6 6 5 5 5 4 3 2 2 2 3 4 3 3 3 3 3 3 5 6
Wind_Direction
131 114 97 113 136 123 152 174 144 131 167 170 178 173 177 150 136 156 137 162 180 190 193 195 198 201 201 202 204 204 204 206 205 205 209 212 216 216 215 214 214 215 219
129 150 160 164 138 144 98 200 165 179 208 199 196 176 211 192 166 205 181 165 184 194 201 205 209 211 210 212 213 214 215 215 214 214 215 217 222 223 223 224 224 224 221
164 213 186 189 167 162 175 214 210 213 211 201 201 204 208 218 201 208 222 202 186 193 202 208 216 217 216 217 220 221 223 220 219 221 222 222 224 225 227 228 226 226 226
210 236 232 207 212 228 214 203 224 213 223 236 217 221 202 192 204 211 221 221 222 196 191 198 209 216 222 224 228 225 226 227 225 227 227 226 228 229 229 228 226 226 224
221 236 240 250 245 238 245 254 186 239 229 254 237 201 213 208 200 209 218 229 222 227 208 174 193 208 218 219 219 218 221 219 219 223 224 225 227 223 221 223 224 226 224
223 249 219 215 249 240 236 236 243 240 254 255 270 194 206 206 212 202 221 211 213 230 246 198 184 192 199 207 213 216 219 222 223 222 222 219 217 218 219 221 220 222 225
230 244 266 205 245 247 255 245 239 219 227 230 240 212 186 188 175 188 196 199 177 192 212 154 220 219 172 179 203 219 224 228 234 228 223 220 220 219 219 223 223 223 223
238 221 240 251 246 257 244 248 251 256 236 217 250 248 217 185 173 157 165 165 141 125 122 132 120 112 291 158 120 153 183 208 217 212 206 207 211 219 222 224 226 227 229
241 260 252 269 276 264 255 259 256 251 255 234 235 258 262 233 140 140 119 117 116 114 111 101 97 92 92 83 89 104 112 110 152 165 161 171 173 191 219 234 231 229 224
251 246 252 261 275 278 271 264 250 263 258 258 230 241 266 290 240 175 150 129 116 97 83 81 89 90 82 86 83 73 82 85 88 100 104 103 102 94 66 345 237 201 181
251 278 275 277 269 274 288 291 286 269 256 262 261 249 240 228 234 232 197 153 114 79 80 80 76 83 85 85 83 78 80 84 84 90 90 86 82 82 79 70 74 104 110
178 274 278 307 292 300 291 281 279 263 276 271 265 258 250 239 221 220 208 180 136 94 77 71 70 74 81 84 82 81 81 83 83 84 86 84 83 81 78 75 77 77 77
150 80 4 346 334 321 308 307 296 308 285 266 260 261 260 256 252 229 207 185 156 140 110 76 62 73 82 87 90 94 86 84 83 82 84 85 83 80 77 73 72 71 70
53 44 19 14 3 343 335 324 300 336 324 284 280 282 268 250 237 221 210 182 171 169 142 112 77 75 84 90 87 95 90 85 84 83 85 86 85 78 74 72 72 70 66
139 98 70 53 31 23 7 342 28 3 354 320 298 264 265 244 233 214 205 216 207 189 157 139 121 89 99 99 94 95 91 86 86 85 86 89 87 81 76 75 73 69 65
95 117 88 67 55 52 38 5 42 39 32 37 5 1 319 320 254 213 213 218 221 186 140 118 109 109 104 108 102 102 100 97 84 83 84 87 86 82 79 79 75 72 69
139 121 86 69 59 48 42 40 39 42 51 56 46 52 30 23 60 187 169 165 143 135 132 121 115 115 117 113 114 116 114 108 97 87 85 85 86 84 81 78 75 71 68
140 122 105 90 81 69 57 56 48 47 50 54 50 53 48 63 72 84 134 135 125 133 139 138 136 134 125 125 124 122 113 107 105 99 94 88 88 86 84 80 75 71 67
140 128 118 107 88 76 68 63 63 66 62 55 50 53 54 61 69 79 98 115 126 131 137 139 139 137 138 137 136 122 111 108 112 118 112 103 97 94 89 84 79 74 69
149 141 132 117 103 84 73 75 75 73 72 66 59 57 55 59 69 92 105 116 125 131 134 137 138 143 139 141 144 138 131 128 115 113 107 112 114 110 100 93 86 81 75
152 139 134 123 115 111 74 64 86 87 83 83 76 68 67 62 55 49 73 109 130 138 141 141 143 146 146 155 155 150 140 132 116 112 131 128 133 127 124 118 105 92 84
144 140 140 131 120 83 68 40 29 92 93 91 87 82 92 91 87 78 68 67 70 124 138 147 149 152 155 157 154 159 151 150 140 134 142 123 128 123 120 106 101 103 97
146 141 137 126 109 93 89 70 34 90 104 91 88 89 88 90 102 102 105 112 87 69 77 157 148 155 158 162 163 156 150 141 122 136 167 151 152 146 137 116 124 128 127
149 147 145 141 135 120 117 114 103 129 105 102 101 97 97 100 83 89 115 108 105 96 91 126 126 133 131 146 170 166 162 160 155 144 183 182 162 168 160 148 149 159 164
158 160 154 155 146 133 133 145 225 141 122 115 106 93 98 108 75 33 124 119 114 114 89 75 73 91 92 100 164 182 180 189 170 154 180 230 175 181 189 180 161 173 181
166 167 156 155 153 145 144 171 241 177 142 138 126 116 81 80 91 359 142 132 130 125 126 127 126 143 148 153 192 221 215 218 192 167 159 214 212 208 199 177 172 172 186